Time,TemperatureF,DewpointF,PressureIn,WindDirection,WindDirectionDegrees,WindSpeedMPH,WindSpeedGustMPH,Humidity,HourlyPrecipIn,Conditions,Clouds,dailyrainin,SoftwareType,DateUTC
2013-03-31 00:00:00,52.4,51.9,30.22,SW,236,0.0,0.0,98,0.00,,---,0.30,VWS V14.00,2013-03-31 04:00:00,
2013-03-31 00:02:00,52.2,51.7,30.22,SW,236,0.0,0.0,98,0.00,,---,0.30,VWS V14.00,2013-03-31 04:02:00,
2013-03-31 00:03:00,52.2,51.7,30.22,SW,236,0.0,0.0,98,0.00,,---,0.30,VWS V14.00,2013-03-31 04:03:00,
2013-03-31 00:08:00,52.2,51.7,30.22,SW,236,0.0,0.0,98,0.00,,---,0.30,VWS V14.00,2013-03-31 04:08:00,
2013-03-31 00:13:00,52.2,51.7,30.22,SW,236,0.0,0.0,98,0.00,,---,0.30,VWS V14.00,2013-03-31 04:13:00,
2013-03-31 00:19:00,52.4,51.9,30.22,SW,236,0.0,0.0,98,0.00,,---,0.30,VWS V14.00,2013-03-31 04:19:00,
2013-03-31 00:24:00,52.6,52.0,30.22,SW,236,0.0,0.0,98,0.00,,---,0.30,VWS V14.00,2013-03-31 04:24:00,
2013-03-31 00:29:00,53.0,52.4,30.22,SW,236,0.0,0.0,98,0.00,,---,0.30,VWS V14.00,2013-03-31 04:29:00,
2013-03-31 00:34:00,53.0,52.4,30.22,SW,236,0.0,0.0,98,0.00,,---,0.30,VWS V14.00,2013-03-31 04:34:00,
2013-03-31 00:39:00,53.1,52.6,30.22,SW,236,0.0,0.0,98,0.00,,---,0.30,VWS V14.00,2013-03-31 04:39:00,
2013-03-31 00:45:00,53.3,52.8,30.22,SW,236,0.0,0.0,98,0.00,,---,0.30,VWS V14.00,2013-03-31 04:45:00,
2013-03-31 00:50:00,53.1,52.6,30.22,SW,236,0.0,0.0,98,0.00,,---,0.30,VWS V14.00,2013-03-31 04:50:00,
2013-03-31 00:55:00,53.3,52.8,30.22,SW,236,0.0,0.0,98,0.00,,---,0.30,VWS V14.00,2013-03-31 04:55:00,
2013-03-31 01:00:00,53.3,52.8,30.22,SW,236,0.0,0.0,98,0.00,,---,0.00,VWS V14.00,2013-03-31 05:00:00,
2013-03-31 01:05:00,53.3,52.8,30.22,SW,236,0.0,0.0,98,0.00,,---,0.00,VWS V14.00,2013-03-31 05:05:00,
2013-03-31 01:10:00,53.5,53.0,30.22,SW,236,0.0,0.0,98,0.00,,---,0.00,VWS V14.00,2013-03-31 05:10:00,
2013-03-31 01:15:00,53.5,53.0,30.22,SW,236,0.0,0.0,98,0.00,,---,0.00,VWS V14.00,2013-03-31 05:15:00,
2013-03-31 01:20:00,53.5,53.0,30.22,SW,236,0.0,0.0,98,0.00,,---,0.00,VWS V14.00,2013-03-31 05:20:00,
2013-03-31 01:26:00,53.3,52.8,30.22,SW,236,0.0,0.0,98,0.00,,---,0.00,VWS V14.00,2013-03-31 05:26:00,
2013-03-31 01:31:00,53.3,52.8,30.22,North,353,0.0,0.0,98,0.00,,---,0.00,VWS V14.00,2013-03-31 05:31:00,
2013-03-31 01:36:00,53.5,53.0,30.22,North,357,2.7,4.0,98,0.00,,---,0.00,VWS V14.00,2013-03-31 05:36:00,
2013-03-31 01:42:00,53.5,53.0,30.22,North,353,0.0,2.7,98,0.00,,---,0.00,VWS V14.00,2013-03-31 05:42:00,
2013-03-31 01:47:00,53.5,53.0,30.22,North,353,0.0,2.7,98,0.00,,---,0.00,VWS V14.00,2013-03-31 05:47:00,
2013-03-31 01:52:00,53.7,53.1,30.22,North,353,0.0,0.0,98,0.00,,---,0.00,VWS V14.00,2013-03-31 05:52:00,
2013-03-31 01:57:00,53.7,53.1,30.22,North,353,0.0,0.0,98,0.00,,---,0.00,VWS V14.00,2013-03-31 05:57:00,
2013-03-31 02:03:00,53.7,53.1,30.22,North,353,0.0,0.0,98,0.00,,---,0.00,VWS V14.00,2013-03-31 06:03:00,
2013-03-31 02:08:00,53.7,53.1,30.22,North,353,0.0,0.0,98,0.00,,---,0.00,VWS V14.00,2013-03-31 06:08:00,
2013-03-31 02:13:00,54.0,53.5,30.22,North,353,0.0,0.0,98,0.00,,---,0.00,VWS V14.00,2013-03-31 06:13:00,
2013-03-31 02:18:00,54.2,53.7,30.22,NNW,345,0.0,0.0,98,0.00,,---,0.00,VWS V14.00,2013-03-31 06:18:00,
2013-03-31 02:23:00,54.6,54.0,30.22,NW,315,0.0,4.0,98,0.00,,---,0.00,VWS V14.00,2013-03-31 06:23:00,
2013-03-31 02:29:00,54.9,54.4,30.22,NW,315,0.0,4.0,98,0.00,,---,0.00,VWS V14.00,2013-03-31 06:29:00,
2013-03-31 02:34:00,54.9,54.4,30.22,NNW,330,0.0,2.2,98,0.00,,---,0.00,VWS V14.00,2013-03-31 06:34:00,
2013-03-31 02:39:00,55.1,54.6,30.22,NW,306,3.1,4.0,98,0.00,,---,0.00,VWS V14.00,2013-03-31 06:39:00,
2013-03-31 02:44:00,55.1,54.6,30.22,WNW,301,0.0,4.9,98,0.00,,---,0.00,VWS V14.00,2013-03-31 06:44:00,
2013-03-31 02:49:00,55.1,54.6,30.22,WNW,301,0.0,4.9,98,0.00,,---,0.00,VWS V14.00,2013-03-31 06:49:00,
2013-03-31 02:54:00,55.1,54.6,30.22,WNW,301,0.0,0.0,98,0.00,,---,0.00,VWS V14.00,2013-03-31 06:54:00,
2013-03-31 03:00:00,55.1,54.6,30.22,WNW,301,0.0,0.0,98,0.00,,---,0.00,VWS V14.00,2013-03-31 07:00:00,
2013-03-31 03:05:00,55.1,54.6,30.22,WNW,301,0.0,0.0,98,0.00,,---,0.00,VWS V14.00,2013-03-31 07:05:00,
2013-03-31 03:10:00,55.1,54.6,30.22,WNW,301,0.0,0.0,98,0.00,,---,0.00,VWS V14.00,2013-03-31 07:10:00,
2013-03-31 03:15:00,55.1,54.6,30.22,West,260,5.4,5.4,98,0.00,,---,0.00,VWS V14.00,2013-03-31 07:15:00,
2013-03-31 03:20:00,55.1,54.6,30.22,WSW,237,3.1,4.0,98,0.00,,---,0.00,VWS V14.00,2013-03-31 07:20:00,
2013-03-31 03:25:00,55.1,54.6,30.22,SW,229,3.6,6.3,98,0.00,,---,0.00,VWS V14.00,2013-03-31 07:25:00,
2013-03-31 03:31:00,55.1,54.6,30.22,West,272,2.7,4.0,98,0.00,,---,0.00,VWS V14.00,2013-03-31 07:31:00,
2013-03-31 03:36:00,55.1,54.6,30.22,WSW,257,0.0,5.4,98,0.00,,---,0.00,VWS V14.00,2013-03-31 07:36:00,
2013-03-31 03:41:00,54.9,54.4,30.22,SW,232,3.1,4.0,98,0.00,,---,0.00,VWS V14.00,2013-03-31 07:41:00,
2013-03-31 03:46:00,54.9,54.4,30.22,South,181,2.7,4.0,98,0.00,,---,0.00,VWS V14.00,2013-03-31 07:46:00,
2013-03-31 03:52:00,54.9,54.4,30.22,South,170,2.7,2.7,98,0.00,,---,0.00,VWS V14.00,2013-03-31 07:52:00,
2013-03-31 03:57:00,54.9,54.4,30.22,SW,223,2.7,4.0,98,0.00,,---,0.00,VWS V14.00,2013-03-31 07:57:00,
2013-03-31 04:02:00,54.9,54.4,30.22,SSE,156,3.1,3.6,98,0.00,,---,0.00,VWS V14.00,2013-03-31 08:02:00,
2013-03-31 04:07:00,54.9,54.4,30.22,SSE,151,2.7,3.6,98,0.00,,---,0.00,VWS V14.00,2013-03-31 08:07:00,
2013-03-31 04:13:00,54.9,54.4,30.22,SSW,208,5.4,5.8,98,0.00,,---,0.00,VWS V14.00,2013-03-31 08:13:00,
2013-03-31 04:18:00,54.9,54.4,30.22,SSW,193,4.0,5.8,98,0.00,,---,0.00,VWS V14.00,2013-03-31 08:18:00,
2013-03-31 04:23:00,54.9,54.4,30.22,SW,216,8.3,10.1,98,0.00,,---,0.00,VWS V14.00,2013-03-31 08:23:00,
2013-03-31 04:28:00,54.9,54.4,30.22,WSW,243,4.9,10.5,98,0.00,,---,0.00,VWS V14.00,2013-03-31 08:28:00,
2013-03-31 04:33:00,54.8,54.2,30.22,SSW,211,4.0,6.3,98,0.00,,---,0.00,VWS V14.00,2013-03-31 08:33:00,
2013-03-31 04:38:00,54.9,54.4,30.22,SSW,198,5.8,7.6,98,0.00,,---,0.00,VWS V14.00,2013-03-31 08:38:00,
2013-03-31 04:43:00,55.1,54.6,30.22,SSW,199,5.8,8.1,98,0.00,,---,0.00,VWS V14.00,2013-03-31 08:43:00,
2013-03-31 04:49:00,55.1,54.6,30.22,SW,218,6.3,8.7,98,0.00,,---,0.00,VWS V14.00,2013-03-31 08:49:00,
2013-03-31 04:54:00,55.1,54.6,30.22,South,181,5.8,8.3,98,0.00,,---,0.00,VWS V14.00,2013-03-31 08:54:00,
2013-03-31 04:59:00,54.9,54.4,30.22,WSW,251,3.1,8.3,98,0.00,,---,0.00,VWS V14.00,2013-03-31 08:59:00,
2013-03-31 05:04:00,54.9,54.4,30.22,SW,222,0.0,5.4,98,0.00,,---,0.00,VWS V14.00,2013-03-31 09:04:00,
2013-03-31 05:09:00,54.8,54.2,30.22,South,178,0.0,5.4,98,0.00,,---,0.00,VWS V14.00,2013-03-31 09:09:00,
2013-03-31 05:15:00,54.6,54.0,30.22,SW,232,0.0,2.7,98,0.00,,---,0.00,VWS V14.00,2013-03-31 09:15:00,
2013-03-31 05:20:00,54.6,54.0,30.22,SW,232,0.0,2.7,98,0.00,,---,0.00,VWS V14.00,2013-03-31 09:20:00,
2013-03-31 05:25:00,54.4,53.8,30.22,NNE,12,2.7,4.9,98,0.00,,---,0.00,VWS V14.00,2013-03-31 09:25:00,
2013-03-31 05:30:00,54.2,53.7,30.22,NNE,12,0.0,0.0,98,0.00,,---,0.00,VWS V14.00,2013-03-31 09:30:00,
2013-03-31 05:36:00,53.9,53.3,30.22,NNE,28,3.1,3.6,98,0.00,,---,0.00,VWS V14.00,2013-03-31 09:36:00,
2013-03-31 05:42:00,53.5,53.0,30.22,NNE,20,0.0,0.0,98,0.00,,---,0.00,VWS V14.00,2013-03-31 09:42:00,
2013-03-31 05:47:00,53.5,53.0,30.22,North,357,0.0,2.7,98,0.00,,---,0.00,VWS V14.00,2013-03-31 09:47:00,
2013-03-31 05:52:00,53.3,52.8,30.22,NNE,27,4.0,5.4,98,0.00,,---,0.00,VWS V14.00,2013-03-31 09:52:00,
2013-03-31 05:57:00,53.1,52.6,30.22,NE,42,0.0,6.3,98,0.00,,---,0.00,VWS V14.00,2013-03-31 09:57:00,
2013-03-31 06:03:00,52.6,52.0,30.22,NE,37,5.4,5.4,98,0.00,,---,0.00,VWS V14.00,2013-03-31 10:03:00,
2013-03-31 06:08:00,52.6,52.0,30.22,NE,36,0.0,5.4,98,0.00,,---,0.00,VWS V14.00,2013-03-31 10:08:00,
2013-03-31 06:13:00,52.2,51.7,30.22,WSW,246,0.0,0.0,98,0.00,,---,0.00,VWS V14.00,2013-03-31 10:13:00,
2013-03-31 06:18:00,52.1,51.5,30.22,WSW,246,0.0,0.0,98,0.00,,---,0.00,VWS V14.00,2013-03-31 10:18:00,
2013-03-31 06:23:00,51.5,51.0,30.22,WSW,246,0.0,0.0,98,0.00,,---,0.00,VWS V14.00,2013-03-31 10:23:00,
2013-03-31 06:29:00,51.3,50.8,30.22,WSW,246,0.0,0.0,98,0.00,,---,0.00,VWS V14.00,2013-03-31 10:29:00,
2013-03-31 06:34:00,51.5,51.0,30.22,WSW,246,0.0,0.0,98,0.00,,---,0.00,VWS V14.00,2013-03-31 10:34:00,
2013-03-31 06:39:00,51.7,51.2,30.22,WSW,246,0.0,0.0,98,0.00,,---,0.00,VWS V14.00,2013-03-31 10:39:00,
2013-03-31 06:44:00,51.3,50.8,30.22,WSW,246,0.0,0.0,98,0.00,,---,0.00,VWS V14.00,2013-03-31 10:44:00,
2013-03-31 06:49:00,51.2,50.6,30.22,WSW,246,0.0,0.0,98,0.00,,---,0.00,VWS V14.00,2013-03-31 10:49:00,
2013-03-31 06:54:00,51.3,50.8,30.22,WSW,246,0.0,0.0,98,0.00,,---,0.00,VWS V14.00,2013-03-31 10:54:00,
2013-03-31 06:59:00,51.3,50.8,30.22,WSW,246,0.0,0.0,98,0.00,,---,0.00,VWS V14.00,2013-03-31 10:59:00,
2013-03-31 07:04:00,51.2,50.6,30.22,WSW,246,0.0,0.0,98,0.00,,---,0.00,VWS V14.00,2013-03-31 11:04:00,
2013-03-31 07:10:00,50.6,50.1,30.22,WSW,245,0.0,0.0,98,0.00,,---,0.00,VWS V14.00,2013-03-31 11:10:00,
2013-03-31 07:15:00,50.1,49.5,30.22,WSW,246,0.0,0.0,98,0.00,,---,0.00,VWS V14.00,2013-03-31 11:15:00,
2013-03-31 07:20:00,49.9,49.4,30.22,WSW,246,0.0,0.0,98,0.00,,---,0.00,VWS V14.00,2013-03-31 11:20:00,
2013-03-31 07:25:00,49.7,49.2,30.22,WSW,246,0.0,0.0,98,0.00,,---,0.00,VWS V14.00,2013-03-31 11:25:00,
2013-03-31 07:30:00,50.1,49.5,30.22,WSW,246,0.0,0.0,98,0.00,,---,0.00,VWS V14.00,2013-03-31 11:30:00,
2013-03-31 07:36:00,50.1,49.5,30.22,NNW,328,0.0,0.0,98,0.00,,---,0.00,VWS V14.00,2013-03-31 11:36:00,
2013-03-31 07:41:00,49.9,49.4,30.22,North,357,0.0,0.0,98,0.00,,---,0.00,VWS V14.00,2013-03-31 11:41:00,
2013-03-31 07:47:00,49.9,49.4,30.22,North,357,2.7,2.7,98,0.00,,---,0.00,VWS V14.00,2013-03-31 11:47:00,
2013-03-31 07:52:00,49.5,49.0,30.22,NNE,18,0.0,0.0,98,0.00,,---,0.00,VWS V14.00,2013-03-31 11:52:00,
2013-03-31 07:57:00,49.5,49.0,30.22,NNE,17,0.0,4.9,98,0.00,,---,0.00,VWS V14.00,2013-03-31 11:57:00,
2013-03-31 08:02:00,49.9,49.4,30.22,North,357,0.0,3.6,98,0.00,,---,0.00,VWS V14.00,2013-03-31 12:02:00,
2013-03-31 08:08:00,50.8,50.3,30.22,North,357,0.0,3.6,98,0.00,,---,0.00,VWS V14.00,2013-03-31 12:08:00,
2013-03-31 08:13:00,51.7,51.2,30.22,North,357,0.0,0.0,98,0.00,,---,0.00,VWS V14.00,2013-03-31 12:13:00,
2013-03-31 08:18:00,52.1,51.5,30.22,North,357,0.0,0.0,98,0.00,,---,0.00,VWS V14.00,2013-03-31 12:18:00,
2013-03-31 08:23:00,52.6,52.0,30.22,North,357,0.0,0.0,98,0.00,,---,0.00,VWS V14.00,2013-03-31 12:23:00,
2013-03-31 08:28:00,53.1,52.6,30.22,North,357,0.0,0.0,98,0.00,,---,0.00,VWS V14.00,2013-03-31 12:28:00,
2013-03-31 08:34:00,53.3,52.8,30.22,North,357,0.0,0.0,98,0.00,,---,0.00,VWS V14.00,2013-03-31 12:34:00,
2013-03-31 08:39:00,53.3,52.8,30.22,North,357,0.0,0.0,98,0.00,,---,0.00,VWS V14.00,2013-03-31 12:39:00,
2013-03-31 08:44:00,53.5,53.0,30.22,East,81,0.0,0.0,98,0.00,,---,0.00,VWS V14.00,2013-03-31 12:44:00,
2013-03-31 08:49:00,53.7,53.1,30.22,East,81,0.0,0.0,98,0.00,,---,0.00,VWS V14.00,2013-03-31 12:49:00,
2013-03-31 08:55:00,53.9,53.3,30.22,East,80,0.0,0.0,98,0.00,,---,0.00,VWS V14.00,2013-03-31 12:55:00,
2013-03-31 09:00:00,54.2,53.7,30.22,East,80,0.0,0.0,98,0.00,,---,0.00,VWS V14.00,2013-03-31 13:00:00,
2013-03-31 09:05:00,54.4,53.8,30.22,NE,54,0.0,0.0,98,0.00,,---,0.00,VWS V14.00,2013-03-31 13:05:00,
2013-03-31 09:10:00,54.4,53.8,30.22,SE,135,3.1,3.1,98,0.00,,---,0.00,VWS V14.00,2013-03-31 13:10:00,
2013-03-31 09:15:00,54.6,54.0,30.22,SE,135,0.0,3.6,98,0.00,,---,0.00,VWS V14.00,2013-03-31 13:15:00,
2013-03-31 09:21:00,54.8,54.2,30.22,SSW,202,0.0,0.0,98,0.00,,---,0.00,VWS V14.00,2013-03-31 13:21:00,
2013-03-31 09:26:00,54.9,54.4,30.22,SSW,202,0.0,0.0,98,0.00,,---,0.00,VWS V14.00,2013-03-31 13:26:00,
2013-03-31 09:31:00,54.9,54.4,30.22,SW,216,0.0,3.1,98,0.00,,---,0.00,VWS V14.00,2013-03-31 13:31:00,
2013-03-31 09:37:00,54.9,54.4,30.22,SW,217,0.0,3.1,98,0.00,,---,0.00,VWS V14.00,2013-03-31 13:37:00,
2013-03-31 09:42:00,55.1,54.6,30.22,SW,217,0.0,0.0,98,0.00,,---,0.00,VWS V14.00,2013-03-31 13:42:00,
2013-03-31 09:47:00,55.3,54.8,30.22,SW,217,0.0,0.0,98,0.00,,---,0.00,VWS V14.00,2013-03-31 13:47:00,
2013-03-31 09:52:00,55.3,54.8,30.22,SW,217,0.0,0.0,98,0.00,,---,0.00,VWS V14.00,2013-03-31 13:52:00,
2013-03-31 09:57:00,55.1,54.6,30.22,SW,217,0.0,0.0,98,0.00,,---,0.00,VWS V14.00,2013-03-31 13:57:00,
2013-03-31 10:03:00,55.1,54.6,30.22,SW,217,0.0,0.0,98,0.00,,---,0.00,VWS V14.00,2013-03-31 14:03:00,
2013-03-31 10:08:00,55.1,54.6,30.22,SW,217,0.0,0.0,98,0.00,,---,0.00,VWS V14.00,2013-03-31 14:08:00,
2013-03-31 10:13:00,55.3,54.8,30.22,WSW,239,0.0,0.0,98,0.00,,---,0.00,VWS V14.00,2013-03-31 14:13:00,
2013-03-31 10:18:00,55.3,54.8,30.22,WSW,240,0.0,0.0,98,0.00,,---,0.00,VWS V14.00,2013-03-31 14:18:00,
2013-03-31 10:24:00,55.1,54.6,30.22,NW,306,3.6,5.8,98,0.00,,---,0.00,VWS V14.00,2013-03-31 14:24:00,
2013-03-31 10:29:00,54.9,54.4,30.22,NNW,345,3.1,5.8,98,0.00,,---,0.00,VWS V14.00,2013-03-31 14:29:00,
2013-03-31 10:34:00,54.8,54.2,30.22,NNW,333,2.7,4.9,98,0.00,,---,0.00,VWS V14.00,2013-03-31 14:34:00,
2013-03-31 10:39:00,54.8,54.2,30.22,NW,316,0.0,4.9,98,0.00,,---,0.00,VWS V14.00,2013-03-31 14:39:00,
2013-03-31 10:44:00,54.9,54.4,30.22,SSW,199,4.0,4.0,98,0.00,,---,0.00,VWS V14.00,2013-03-31 14:44:00,
2013-03-31 10:50:00,54.9,54.4,30.22,SW,229,0.0,4.0,98,0.00,,---,0.00,VWS V14.00,2013-03-31 14:50:00,
2013-03-31 10:55:00,55.1,54.6,30.22,SW,229,0.0,0.0,98,0.00,,---,0.00,VWS V14.00,2013-03-31 14:55:00,
2013-03-31 11:00:00,55.1,54.6,30.22,SW,229,2.2,2.2,98,0.00,,---,0.00,VWS V14.00,2013-03-31 15:00:00,
2013-03-31 11:05:00,55.3,54.8,30.22,SW,229,0.0,2.2,98,0.00,,---,0.00,VWS V14.00,2013-03-31 15:05:00,
2013-03-31 11:10:00,55.8,55.3,30.22,SW,229,0.0,0.0,98,0.00,,---,0.00,VWS V14.00,2013-03-31 15:10:00,
2013-03-31 11:15:00,56.2,55.7,30.22,SW,229,0.0,0.0,98,0.00,,---,0.00,VWS V14.00,2013-03-31 15:15:00,
2013-03-31 11:21:00,56.7,56.2,30.22,SW,229,0.0,0.0,98,0.00,,---,0.00,VWS V14.00,2013-03-31 15:21:00,
2013-03-31 11:26:00,56.6,56.0,30.22,SW,229,0.0,0.0,98,0.00,,---,0.00,VWS V14.00,2013-03-31 15:26:00,
2013-03-31 11:32:00,56.4,55.8,30.22,North,353,3.1,3.6,98,0.00,,---,0.00,VWS V14.00,2013-03-31 15:32:00,
2013-03-31 11:37:00,56.2,55.7,30.22,NNW,337,3.6,4.0,98,0.00,,---,0.00,VWS V14.00,2013-03-31 15:37:00,
2013-03-31 11:42:00,55.8,55.3,30.22,NNW,345,4.0,4.0,98,0.00,,---,0.00,VWS V14.00,2013-03-31 15:42:00,
2013-03-31 11:47:00,55.8,55.3,30.22,NNW,345,4.0,4.0,98,0.00,,---,0.00,VWS V14.00,2013-03-31 15:47:00,
2013-03-31 12:14:00,56.6,51.8,29.98,ENE,78,4.0,4.0,84,0.00,,---,0.00,VWS V14.00,2013-03-31 16:14:00,
2013-03-31 12:19:00,56.7,51.3,29.98,ENE,78,4.0,4.0,82,0.00,,---,0.14,VWS V14.00,2013-03-31 16:19:00,
2013-03-31 12:24:00,56.7,50.3,17.72,ENE,64,6.3,8.1,79,0.00,,---,0.14,VWS V14.00,2013-03-31 16:24:00,
2013-03-31 12:29:00,56.9,49.1,29.98,ENE,64,3.6,8.1,75,0.00,,---,0.14,VWS V14.00,2013-03-31 16:29:00,
2013-03-31 12:34:00,57.3,49.8,29.98,ENE,65,6.3,8.1,76,0.00,,---,0.14,VWS V14.00,2013-03-31 16:34:00,
2013-03-31 12:40:00,57.3,48.7,29.98,ESE,111,2.7,8.3,73,0.00,,---,0.14,VWS V14.00,2013-03-31 16:40:00,
2013-03-31 12:45:00,57.3,49.1,29.98,NE,47,5.4,8.1,74,0.00,,---,0.14,VWS V14.00,2013-03-31 16:45:00,
2013-03-31 12:50:00,57.1,48.2,29.98,NE,45,8.1,8.1,72,0.00,,---,0.14,VWS V14.00,2013-03-31 16:50:00,
2013-03-31 12:55:00,57.3,48.0,29.98,NE,43,6.3,8.3,71,0.00,,---,0.14,VWS V14.00,2013-03-31 16:55:00,
2013-03-31 13:01:00,57.8,47.7,29.98,ENE,70,3.6,5.8,69,0.00,,---,0.14,VWS V14.00,2013-03-31 17:01:00,
2013-03-31 13:06:00,57.8,45.7,29.98,East,81,5.8,8.1,64,0.00,,---,0.14,VWS V14.00,2013-03-31 17:06:00,
2013-03-31 13:12:00,58.2,46.1,29.98,NE,48,5.4,10.1,64,0.00,,---,0.14,VWS V14.00,2013-03-31 17:12:00,
2013-03-31 13:17:00,57.8,45.7,29.98,NE,51,8.3,10.5,64,0.00,,---,0.14,VWS V14.00,2013-03-31 17:17:00,
2013-03-31 13:22:00,58.9,47.6,29.98,NE,47,5.8,6.3,66,0.00,,---,0.14,VWS V14.00,2013-03-31 17:22:00,
2013-03-31 13:27:00,59.1,46.1,29.98,NNE,25,5.8,6.3,62,0.00,,---,0.14,VWS V14.00,2013-03-31 17:27:00,
2013-03-31 13:33:00,59.1,44.3,29.98,East,82,8.1,8.7,58,0.00,,---,0.14,VWS V14.00,2013-03-31 17:33:00,
2013-03-31 13:38:00,59.3,44.5,29.98,East,87,2.7,8.7,58,0.00,,---,0.14,VWS V14.00,2013-03-31 17:38:00,
2013-03-31 13:43:00,59.3,43.1,29.98,ENE,69,5.4,7.6,55,0.00,,---,0.14,VWS V14.00,2013-03-31 17:43:00,
2013-03-31 13:48:00,58.9,42.3,29.98,NNE,21,7.6,12.3,54,0.00,,---,0.14,VWS V14.00,2013-03-31 17:48:00,
2013-03-31 13:54:00,59.3,44.0,29.98,NE,50,7.2,9.2,57,0.00,,---,0.14,VWS V14.00,2013-03-31 17:54:00,
2013-03-31 13:59:00,60.0,43.3,29.98,East,80,5.4,9.2,54,0.00,,---,0.14,VWS V14.00,2013-03-31 17:59:00,
2013-03-31 14:04:00,59.8,41.1,29.98,ENE,59,6.3,11.0,50,0.00,,---,0.14,VWS V14.00,2013-03-31 18:04:00,
2013-03-31 14:09:00,60.3,41.1,29.98,ENE,65,5.4,11.0,49,0.00,,---,0.14,VWS V14.00,2013-03-31 18:09:00,
2013-03-31 14:15:00,60.9,41.6,29.98,ENE,68,5.8,7.2,49,0.00,,---,0.14,VWS V14.00,2013-03-31 18:15:00,
2013-03-31 14:20:00,61.2,42.5,29.98,NE,51,3.6,7.6,50,0.00,,---,0.14,VWS V14.00,2013-03-31 18:20:00,
2013-03-31 14:25:00,61.2,40.9,29.98,NE,52,8.1,8.3,47,0.00,,---,0.14,VWS V14.00,2013-03-31 18:25:00,
2013-03-31 14:30:00,60.7,39.8,29.98,ENE,72,6.7,7.6,46,0.00,,---,0.14,VWS V14.00,2013-03-31 18:30:00,
2013-03-31 14:36:00,60.9,40.5,29.98,ENE,64,5.8,9.6,47,0.00,,---,0.14,VWS V14.00,2013-03-31 18:36:00,
2013-03-31 14:41:00,61.4,39.3,29.98,NE,46,6.3,8.1,44,0.00,,---,0.14,VWS V14.00,2013-03-31 18:41:00,
2013-03-31 14:46:00,61.8,39.7,29.98,NNE,32,4.0,8.7,44,0.00,,---,0.14,VWS V14.00,2013-03-31 18:46:00,
2013-03-31 14:52:00,62.0,39.8,29.98,NE,45,5.8,5.8,44,0.00,,---,0.14,VWS V14.00,2013-03-31 18:52:00,
2013-03-31 14:57:00,61.2,38.6,29.98,North,1,7.6,10.5,43,0.00,,---,0.14,VWS V14.00,2013-03-31 18:57:00,
2013-03-31 15:03:00,61.1,37.8,29.98,NNE,28,6.7,11.0,42,0.00,,---,0.14,VWS V14.00,2013-03-31 19:03:00,
2013-03-31 15:08:00,61.4,37.5,29.98,NE,47,10.1,11.0,41,0.00,,---,0.14,VWS V14.00,2013-03-31 19:08:00,
2013-03-31 15:13:00,62.1,38.2,29.98,ENE,76,4.0,8.3,41,0.00,,---,0.14,VWS V14.00,2013-03-31 19:13:00,
2013-03-31 15:18:00,62.0,36.8,29.98,NE,50,7.6,8.3,39,0.00,,---,0.14,VWS V14.00,2013-03-31 19:18:00,
2013-03-31 15:23:00,62.3,37.7,29.98,NE,46,6.3,10.1,40,0.00,,---,0.14,VWS V14.00,2013-03-31 19:23:00,
2013-03-31 15:29:00,62.7,37.4,29.98,NE,50,6.3,10.1,39,0.00,,---,0.14,VWS V14.00,2013-03-31 19:29:00,
2013-03-31 15:34:00,62.5,36.6,29.98,NE,36,6.3,8.3,38,0.00,,---,0.14,VWS V14.00,2013-03-31 19:34:00,
2013-03-31 15:39:00,62.5,37.2,29.98,NE,43,6.3,9.2,39,0.00,,---,0.14,VWS V14.00,2013-03-31 19:39:00,
2013-03-31 15:45:00,63.0,38.4,29.98,East,79,4.9,8.3,40,0.00,,---,0.14,VWS V14.00,2013-03-31 19:45:00,
2013-03-31 15:50:00,63.6,38.2,29.98,NE,36,5.4,5.4,39,0.00,,---,0.14,VWS V14.00,2013-03-31 19:50:00,
2013-03-31 15:55:00,63.4,36.0,29.98,NE,38,11.4,11.4,36,0.00,,---,0.14,VWS V14.00,2013-03-31 19:55:00,
2013-03-31 16:01:00,63.0,36.4,29.98,NNE,27,8.3,12.8,37,0.00,,---,0.14,VWS V14.00,2013-03-31 20:01:00,
2013-03-31 16:07:00,63.4,38.0,29.98,NNE,30,8.7,12.8,39,0.00,,---,0.14,VWS V14.00,2013-03-31 20:07:00,
2013-03-31 16:12:00,63.2,37.2,29.98,North,0,10.1,10.1,38,0.00,,---,0.14,VWS V14.00,2013-03-31 20:12:00,
2013-03-31 16:17:00,63.2,37.9,29.98,NNW,342,5.4,10.1,39,0.00,,---,0.14,VWS V14.00,2013-03-31 20:17:00,
2013-03-31 16:23:00,63.6,37.5,29.98,NNE,27,4.9,8.1,38,0.00,,---,0.14,VWS V14.00,2013-03-31 20:23:00,
2013-03-31 16:28:00,63.8,36.3,29.98,NNW,330,3.1,10.1,36,0.00,,---,0.14,VWS V14.00,2013-03-31 20:28:00,
2013-03-31 16:33:00,63.6,36.9,29.98,North,353,4.0,10.1,37,0.00,,---,0.14,VWS V14.00,2013-03-31 20:33:00,
2013-03-31 16:39:00,63.4,36.0,29.98,North,357,2.7,10.1,36,0.00,,---,0.14,VWS V14.00,2013-03-31 20:39:00,
2013-03-31 16:44:00,63.6,36.9,29.98,NNE,14,4.5,7.6,37,0.00,,---,0.14,VWS V14.00,2013-03-31 20:44:00,
2013-03-31 16:49:00,63.8,36.3,29.98,NNE,28,8.1,9.6,36,0.00,,---,0.14,VWS V14.00,2013-03-31 20:49:00,
2013-03-31 16:54:00,63.8,34.9,29.98,North,357,6.3,10.5,34,0.00,,---,0.14,VWS V14.00,2013-03-31 20:54:00,
2013-03-31 17:00:00,63.4,35.3,29.98,NE,37,7.6,10.5,35,0.00,,---,0.18,VWS V14.00,2013-03-31 21:00:00,
2013-03-31 17:05:00,63.6,36.2,29.98,NE,55,6.3,8.7,36,0.00,,---,0.18,VWS V14.00,2013-03-31 21:05:00,
2013-03-31 17:10:00,63.9,35.8,29.98,NE,47,5.8,8.1,35,0.00,,---,0.18,VWS V14.00,2013-03-31 21:10:00,
2013-03-31 17:15:00,63.9,35.8,29.98,NNE,28,5.8,8.7,35,0.00,,---,0.18,VWS V14.00,2013-03-31 21:15:00,
2013-03-31 17:20:00,64.1,36.6,29.98,NE,47,7.6,8.1,36,0.00,,---,0.18,VWS V14.00,2013-03-31 21:20:00,
2013-03-31 17:26:00,64.1,36.6,29.98,North,0,6.3,11.0,36,0.00,,---,0.18,VWS V14.00,2013-03-31 21:26:00,
2013-03-31 17:31:00,64.5,37.0,29.98,NNE,24,4.0,6.7,36,0.00,,---,0.18,VWS V14.00,2013-03-31 21:31:00,
2013-03-31 17:36:00,64.8,35.8,29.98,NNW,346,7.6,8.7,34,0.00,,---,0.18,VWS V14.00,2013-03-31 21:36:00,
2013-03-31 17:42:00,64.8,35.8,29.98,NNE,32,7.6,8.7,34,0.00,,---,0.18,VWS V14.00,2013-03-31 21:42:00,
2013-03-31 17:47:00,64.8,35.8,29.98,NNE,24,5.8,8.7,34,0.00,,---,0.18,VWS V14.00,2013-03-31 21:47:00,
2013-03-31 17:52:00,64.5,35.5,29.98,North,7,4.9,6.7,34,0.00,,---,0.18,VWS V14.00,2013-03-31 21:52:00,
2013-03-31 17:57:00,64.1,35.9,29.98,NW,314,3.1,6.7,35,0.00,,---,0.18,VWS V14.00,2013-03-31 21:57:00,
2013-03-31 18:03:00,64.1,35.2,29.98,NNE,30,3.1,6.3,34,0.00,,---,0.18,VWS V14.00,2013-03-31 22:03:00,
2013-03-31 18:08:00,64.5,35.5,29.98,NNW,338,3.1,6.3,34,0.00,,---,0.18,VWS V14.00,2013-03-31 22:08:00,
2013-03-31 18:13:00,64.7,35.7,29.98,NE,56,3.6,4.0,34,0.00,,---,0.18,VWS V14.00,2013-03-31 22:13:00,
2013-03-31 18:19:00,64.8,35.1,29.98,NE,41,5.8,8.1,33,0.00,,---,0.18,VWS V14.00,2013-03-31 22:19:00,
2013-03-31 18:24:00,64.5,34.8,29.98,ENE,65,6.3,6.3,33,0.00,,---,0.18,VWS V14.00,2013-03-31 22:24:00,
2013-03-31 18:29:00,64.1,34.5,29.98,NE,36,4.0,6.3,33,0.00,,---,0.18,VWS V14.00,2013-03-31 22:29:00,
2013-03-31 18:34:00,63.9,35.0,29.98,ENE,68,4.0,6.3,34,0.00,,---,0.18,VWS V14.00,2013-03-31 22:34:00,
2013-03-31 18:40:00,64.1,34.5,29.98,North,11,3.1,6.3,33,0.00,,---,0.18,VWS V14.00,2013-03-31 22:40:00,
2013-03-31 18:45:00,64.1,34.5,29.98,NE,54,4.0,6.7,33,0.00,,---,0.18,VWS V14.00,2013-03-31 22:45:00,
2013-03-31 18:50:00,63.9,34.3,29.98,North,0,4.0,4.0,33,0.00,,---,0.18,VWS V14.00,2013-03-31 22:50:00,
2013-03-31 18:55:00,63.9,34.3,29.98,North,11,4.9,7.6,33,0.00,,---,0.18,VWS V14.00,2013-03-31 22:55:00,
2013-03-31 19:00:00,63.8,32.6,29.98,North,2,5.4,6.7,31,0.00,,---,0.18,VWS V14.00,2013-03-31 23:00:00,
2013-03-31 19:06:00,63.6,32.4,29.98,NE,52,3.6,6.7,31,0.00,,---,0.18,VWS V14.00,2013-03-31 23:06:00,
2013-03-31 19:11:00,63.4,33.8,29.98,NNW,338,3.6,4.0,33,0.00,,---,0.18,VWS V14.00,2013-03-31 23:11:00,
2013-03-31 19:16:00,63.2,34.4,29.98,NE,54,3.6,5.8,34,0.00,,---,0.18,VWS V14.00,2013-03-31 23:16:00,
2013-03-31 19:22:00,63.2,33.7,29.98,North,6,5.8,6.3,33,0.00,,---,0.18,VWS V14.00,2013-03-31 23:22:00,
2013-03-31 19:27:00,63.0,34.2,29.98,NW,312,2.2,6.3,34,0.00,,---,0.18,VWS V14.00,2013-03-31 23:27:00,
2013-03-31 19:32:00,62.5,33.8,29.98,SW,227,0.0,2.7,34,0.00,,---,0.18,VWS V14.00,2013-03-31 23:32:00,
2013-03-31 19:37:00,62.5,33.8,29.98,NE,39,3.6,3.6,34,0.00,,---,0.18,VWS V14.00,2013-03-31 23:37:00,
2013-03-31 19:43:00,62.3,33.6,29.98,ENE,64,2.7,3.6,34,0.00,,---,0.18,VWS V14.00,2013-03-31 23:43:00,
2013-03-31 19:48:00,62.1,33.5,29.98,NE,49,3.6,4.9,34,0.00,,---,0.18,VWS V14.00,2013-03-31 23:48:00,
2013-03-31 19:53:00,62.0,34.0,29.98,NE,50,3.1,4.0,35,0.00,,---,0.18,VWS V14.00,2013-03-31 23:53:00,
2013-03-31 19:59:00,63.4,34.6,29.98,NE,50,2.7,4.9,34,0.00,,---,0.18,VWS V14.00,2013-03-31 23:59:00,
2013-03-31 20:04:00,64.1,34.5,29.98,NE,52,2.2,4.0,33,0.00,,---,0.18,VWS V14.00,2013-04-01 00:04:00,
2013-03-31 20:09:00,62.3,33.6,29.98,NE,52,0.0,4.0,34,0.00,,---,0.18,VWS V14.00,2013-04-01 00:09:00,
2013-03-31 20:14:00,60.9,33.8,29.98,NE,52,0.0,0.0,36,0.00,,---,0.18,VWS V14.00,2013-04-01 00:14:00,
2013-03-31 20:19:00,60.0,33.0,29.98,NE,52,0.0,0.0,36,0.00,,---,0.18,VWS V14.00,2013-04-01 00:19:00,
2013-03-31 20:24:00,58.9,34.0,29.98,NE,52,0.0,0.0,39,0.00,,---,0.18,VWS V14.00,2013-04-01 00:24:00,
2013-03-31 20:29:00,58.4,34.8,29.98,ESE,115,0.0,0.0,41,0.00,,---,0.18,VWS V14.00,2013-04-01 00:29:00,
2013-03-31 20:34:00,57.8,34.9,29.98,ESE,115,0.0,0.0,42,0.00,,---,0.18,VWS V14.00,2013-04-01 00:34:00,
2013-03-31 20:40:00,57.3,36.1,29.98,ESE,115,3.1,3.1,45,0.00,,---,0.18,VWS V14.00,2013-04-01 00:40:00,
2013-03-31 20:45:00,56.6,36.6,29.98,ESE,115,2.2,4.0,47,0.00,,---,0.18,VWS V14.00,2013-04-01 00:45:00,
2013-03-31 20:50:00,56.4,38.0,29.98,ESE,115,2.7,3.1,50,0.00,,---,0.18,VWS V14.00,2013-04-01 00:50:00,
2013-03-31 20:55:00,56.0,38.2,29.98,ESE,115,2.7,3.1,51,0.00,,---,0.18,VWS V14.00,2013-04-01 00:55:00,
2013-03-31 21:00:00,55.8,38.5,29.98,ESE,115,4.0,4.0,52,0.00,,---,0.18,VWS V14.00,2013-04-01 01:00:00,
2013-03-31 21:07:00,55.7,39.3,29.98,ESE,115,3.1,4.0,54,0.00,,---,0.18,VWS V14.00,2013-04-01 01:07:00,
2013-03-31 21:12:00,55.3,39.4,29.98,ESE,115,0.0,3.1,55,0.00,,---,0.18,VWS V14.00,2013-04-01 01:12:00,
2013-03-31 21:17:00,55.3,39.9,29.98,ESE,115,0.0,3.1,56,0.00,,---,0.18,VWS V14.00,2013-04-01 01:17:00,
2013-03-31 21:22:00,55.1,40.2,29.98,ESE,115,0.0,0.0,57,0.00,,---,0.18,VWS V14.00,2013-04-01 01:22:00,
2013-03-31 21:27:00,54.9,40.0,29.98,ESE,115,0.0,0.0,57,0.00,,---,0.18,VWS V14.00,2013-04-01 01:27:00,
2013-03-31 21:33:00,54.6,40.1,29.98,ESE,115,0.0,0.0,58,0.00,,---,0.18,VWS V14.00,2013-04-01 01:33:00,
2013-03-31 21:38:00,54.0,40.5,29.98,ESE,115,3.1,3.1,60,0.00,,---,0.18,VWS V14.00,2013-04-01 01:38:00,
2013-03-31 21:43:00,53.9,41.2,29.98,ESE,115,3.1,3.6,62,0.00,,---,0.18,VWS V14.00,2013-04-01 01:43:00,
2013-03-31 21:48:00,53.5,42.0,29.98,SE,128,3.6,3.6,65,0.00,,---,0.18,VWS V14.00,2013-04-01 01:48:00,
2013-03-31 21:53:00,53.5,42.8,29.98,SSW,199,2.2,4.9,67,0.00,,---,0.18,VWS V14.00,2013-04-01 01:53:00,
2013-03-31 21:59:00,53.5,43.2,29.98,SSW,195,4.9,4.9,68,0.00,,---,0.18,VWS V14.00,2013-04-01 01:59:00,
2013-03-31 22:04:00,53.7,43.4,29.98,South,171,0.0,4.9,68,0.00,,---,0.18,VWS V14.00,2013-04-01 02:04:00,
2013-03-31 22:09:00,53.5,42.8,29.98,South,170,0.0,4.9,67,0.00,,---,0.18,VWS V14.00,2013-04-01 02:09:00,
2013-03-31 22:14:00,53.5,43.2,29.98,South,170,0.0,0.0,68,0.00,,---,0.18,VWS V14.00,2013-04-01 02:14:00,
2013-03-31 22:20:00,52.2,43.1,29.98,South,170,0.0,0.0,71,0.00,,---,0.18,VWS V14.00,2013-04-01 02:20:00,
2013-03-31 22:25:00,51.2,42.5,29.98,South,170,0.0,0.0,72,0.00,,---,0.18,VWS V14.00,2013-04-01 02:25:00,
2013-03-31 22:30:00,51.2,43.5,29.98,South,170,0.0,0.0,75,0.00,,---,0.18,VWS V14.00,2013-04-01 02:30:00,
2013-03-31 22:36:00,50.6,44.0,29.98,South,181,3.1,4.9,78,0.00,,---,0.18,VWS V14.00,2013-04-01 02:36:00,
2013-03-31 22:42:00,51.0,45.0,29.98,SSW,210,3.1,3.1,80,0.00,,---,0.18,VWS V14.00,2013-04-01 02:42:00,
2013-03-31 22:47:00,51.2,45.5,29.98,SSW,210,0.0,3.1,81,0.00,,---,0.18,VWS V14.00,2013-04-01 02:47:00,
2013-03-31 22:52:00,50.8,44.9,29.98,SSW,210,0.0,0.0,80,0.00,,---,0.18,VWS V14.00,2013-04-01 02:52:00,
2013-03-31 22:57:00,49.9,44.6,29.98,SSW,210,0.0,0.0,82,0.00,,---,0.18,VWS V14.00,2013-04-01 02:57:00,
2013-03-31 23:02:00,50.1,45.1,29.98,SSW,210,0.0,0.0,83,0.00,,---,0.18,VWS V14.00,2013-04-01 03:02:00,
2013-03-31 23:07:00,49.9,45.3,29.98,SSW,210,0.0,0.0,84,0.00,,---,0.18,VWS V14.00,2013-04-01 03:07:00,
2013-03-31 23:13:00,49.5,44.9,29.98,SSW,210,0.0,0.0,84,0.00,,---,0.18,VWS V14.00,2013-04-01 03:13:00,
2013-03-31 23:18:00,49.4,44.7,29.98,SSW,210,0.0,0.0,84,0.00,,---,0.18,VWS V14.00,2013-04-01 03:18:00,
2013-03-31 23:23:00,49.5,45.2,29.98,SSW,210,0.0,0.0,85,0.00,,---,0.18,VWS V14.00,2013-04-01 03:23:00,
2013-03-31 23:28:00,49.7,45.4,29.98,SSW,210,0.0,0.0,85,0.00,,---,0.18,VWS V14.00,2013-04-01 03:28:00,
2013-03-31 23:34:00,49.5,45.5,29.98,SSW,210,0.0,0.0,86,0.00,,---,0.18,VWS V14.00,2013-04-01 03:34:00,
2013-03-31 23:39:00,49.0,45.0,29.98,SSW,210,0.0,0.0,86,0.00,,---,0.18,VWS V14.00,2013-04-01 03:39:00,
2013-03-31 23:45:00,48.6,45.2,29.98,SSW,210,0.0,0.0,88,0.00,,---,0.18,VWS V14.00,2013-04-01 03:45:00,
2013-03-31 23:50:00,48.3,44.9,29.98,SSW,210,0.0,0.0,88,0.00,,---,0.18,VWS V14.00,2013-04-01 03:50:00,
2013-03-31 23:55:00,48.3,45.2,29.98,SSW,210,0.0,0.0,89,0.00,,---,0.18,VWS V14.00,2013-04-01 03:55:00,